Overview Statistics Trail Chart Weather Telemetry Raw packets
 

This is the latest recevied weather packets stored in our database for station/object SR3WXA. If no packets are shown the sender has not sent any weather packets the latest 10 day(s).

<< 158 159 160 161 162 163 164 >>
Time Temp. Humidity Pressure Rain* Wind** Luminosity Snow
1787917147 25.56° C 49% 1013.3 hPa 0 mm - 619 W/m² -
1787917054 25.56° C 49% 1013.3 hPa 0 mm - 619 W/m² -
1787916872 25° C 50% 1013.3 hPa 0 mm - 520 W/m² -
1787916754 25° C 50% 1013.3 hPa 0 mm - 520 W/m² -
1787916544 25° C 50% 1013.4 hPa 0 mm - 612 W/m² -
1787916454 25° C 50% 1013.4 hPa 0 mm - 612 W/m² -
1787916154 25° C 50% 1013.6 hPa 0 mm - 552 W/m² -
1787915992 24.44° C 50% 1013.6 hPa 0 mm - 533 W/m² -
1787915854 24.44° C 50% 1013.6 hPa 0 mm - 533 W/m² -
1787915674 24.44° C 50% 1013.6 hPa 0 mm - 524 W/m² -
1787915554 24.44° C 50% 1013.6 hPa 0 mm - 524 W/m² -
1787915157 24.44° C 51% 1013.8 hPa 0 mm - 548 W/m² -
1787914965 24.44° C 51% 1013.8 hPa 0 mm - 548 W/m² -
1787914784 24.44° C 51% 1013.7 hPa 0 mm - 378 W/m² -
1787914664 24.44° C 51% 1013.7 hPa 0 mm - 378 W/m² -
1787914457 24.44° C 51% 1013.8 hPa 0 mm - 411 W/m² -
1787914364 24.44° C 51% 1013.8 hPa 0 mm - 411 W/m² -
1787914174 24.44° C 51% 1014.1 hPa 0 mm - 480 W/m² -
1787914064 24.44° C 51% 1014.1 hPa 0 mm - 480 W/m² -
1787913875 24.44° C 51% 1014.1 hPa 0 mm - 564 W/m² -
1787913764 24.44° C 51% 1014.1 hPa 0 mm - 564 W/m² -
1787913584 23.89° C 51% 1014.1 hPa 0 mm - 563 W/m² -
1787913465 23.89° C 51% 1014.1 hPa 0 mm - 563 W/m² -
1787913234 23.89° C 52% 1014 hPa 0 mm - 559 W/m² -
1787913165 23.89° C 52% 1014 hPa 0 mm - 559 W/m² -

* Rain latest hour (hover to see other rain measurements)
** Current wind speed in m/s (hover to see current wind gust speed)